Home   Weather   Charleroi   Past weeks

Flag for Belgium Past Weather in Charleroi, Belgium — Yesterday and Last 2 Weeks

Now
48 °F

Light rain. Passing clouds.


Feels Like: 42 °F
Forecast: 42 / 48 °F
Wind: 17 mph from West

Location: Charleroi / Gosselies

Current Time: Feb 22, 2017 at 2:39:09 am

Latest Report: Feb 22, 2017 at 2:20 am


Visibility: 3 mi

Pressure: 29.95 "Hg

Humidity: 94%

Dew Point: 46 °F

Location of CharleroiLocation

Past Weather in Charleroi — Graph

°F

Charleroi Temperature Yesterday

Maximum temperature yesterday: 48 °F (at 12:20 am)
Minimum temperature yesterday: 48 °F (at 12:20 am)
Average temperature yesterday: 48 °F

High & Low Weather Summary for the Past Weeks

 TemperatureHumidityPressure
High59 °F (Feb 14, 3:20 pm)100% (Feb 7, 6:20 am)30.48 "Hg (Feb 7, 6:20 am)
Low27 °F (Feb 10, 6:20 am)44% (Feb 14, 2:20 pm)29.95 "Hg (Feb 7, 9:50 am)
Average41 °F88%30.21 "Hg
* Reported Feb 7 12:20 am — Feb 22 12:50 am, Charleroi, Weather by CustomWeather, © 2017

Note: Actual official high and low records may vary slightly from our data, if they occured in-between our weather recording intervals... More about our weather records

Advertising

Charleroi Weather History for the Previous 24 Hours

Scroll right to see more
 ConditionsComfort  
Time TempWeatherWind HumidityBarometerVisibility
12:50 am
Wed, Feb 22
48 °FLight rain. Passing clouds.21 mph100%29.95 "Hg3 mi
12:20 am48 °FLight rain. Partly cloudy.22 mph94%29.95 "Hg4 mi
11:50 pm
Tue, Feb 21
48 °FDrizzle. Fog.20 mph94%29.98 "Hg3 mi
11:20 pm48 °FDrizzle. Fog.20 mph94%29.98 "Hg2 mi
10:50 pm48 °FDrizzle. Fog.18 mph94%29.98 "Hg2 mi
10:20 pm48 °FDrizzle. Fog.16 mph100%29.98 "Hg2 mi
9:50 pm48 °FDrizzle. Fog.17 mph100%29.98 "Hg2 mi
9:20 pm48 °FDrizzle. Fog.15 mph94%30.01 "Hg2 mi
8:50 pm48 °FDrizzle. Fog.17 mph94%30.01 "Hg2 mi
8:20 pm48 °FDrizzle. Fog.16 mph100%30.01 "Hg3 mi
7:50 pm48 °FDrizzle. Fog.17 mph100%30.01 "Hg3 mi
7:20 pm48 °FDrizzle. Fog.14 mph100%30.01 "Hg3 mi
6:50 pm48 °FDrizzle. Fog.14 mph100%30.01 "Hg3 mi
6:20 pm48 °FPartly cloudy.13 mph100%30.01 "Hg4 mi
5:50 pm48 °FPartly sunny.13 mph100%30.01 "HgN/A
5:20 pm48 °FPartly sunny.14 mph100%30.04 "HgN/A
4:50 pm48 °FPartly sunny.10 mph100%30.04 "HgN/A
4:20 pm48 °FDrizzle. Fog.12 mph100%30.04 "Hg2 mi
3:50 pm48 °FBroken clouds.8 mph100%30.04 "Hg4 mi
3:20 pm48 °FDrizzle. Fog.9 mph100%30.04 "Hg2 mi
2:50 pm48 °FDrizzle. Fog.10 mph100%30.04 "Hg2 mi
2:20 pm48 °FDrizzle. Fog.9 mph100%30.04 "Hg2 mi
1:50 pm48 °FDrizzle. Fog.9 mph100%30.07 "Hg2 mi
1:20 pm48 °FDrizzle. Fog.9 mph100%30.07 "Hg2 mi
12:50 pm48 °FDrizzle. Fog.10 mph94%30.07 "Hg3 mi
12:20 pm48 °FDrizzle. Fog.12 mph100%30.07 "Hg3 mi
11:50 am48 °FDrizzle. Fog.12 mph100%30.07 "Hg3 mi
11:20 am48 °FDrizzle. Fog.10 mph100%30.07 "Hg3 mi
10:50 am48 °FDrizzle. Fog.12 mph100%30.07 "Hg2 mi
10:20 am48 °FDrizzle. Fog.9 mph100%30.07 "Hg2 mi
9:50 am48 °FDrizzle. Fog.8 mph100%30.07 "Hg2 mi
9:20 am48 °FDrizzle. Fog.8 mph100%30.07 "Hg2 mi
8:50 am48 °FDrizzle. Fog.8 mph100%30.04 "Hg1 mi
8:20 am48 °FDrizzle. Fog.9 mph100%30.04 "Hg1 mi
7:50 am48 °FFog.9 mph100%30.04 "Hg1 mi
7:20 am48 °FLight rain. Fog.10 mph100%30.04 "Hg1 mi
6:50 am48 °FLight rain. Fog.9 mph100%30.04 "Hg1 mi
6:20 am48 °FLight rain. Fog.8 mph100%30.04 "Hg1 mi
5:50 am48 °FLight rain. Fog.10 mph100%30.04 "Hg1 mi
5:20 am48 °FLight rain. Fog.10 mph100%30.04 "Hg1 mi
4:50 am48 °FLight rain. Fog.13 mph100%30.01 "Hg1 mi
4:20 am48 °FLight rain. Fog.12 mph100%30.04 "Hg2 mi
3:50 am48 °FLight rain. Fog.12 mph100%30.04 "Hg2 mi
3:20 am48 °FLight rain. Fog.13 mph100%30.04 "Hg1 mi
2:50 am48 °FLight rain. Fog.13 mph100%30.04 "Hg3 mi
2:20 am48 °FLight rain. Fog.13 mph100%30.04 "Hg2 mi
Weather by CustomWeather, © 2017

See weather overviewHow to use our weather pages